FW4339 Weather Reports


time (UTC)temp
C
wind
direction
speed
KPH
gust
KPH
rain 1hr
cm
rain 24hr
cm
rain mn
cm
humidity
%
barometer
mb
20260507191544 17 0.0 0.0 0.00 0.00 0.00 72 1016.8
20260507190042 17 0.0 0.0 0.00 0.00 0.00 71 1016.8
20260507184542 17 0.0 0.0 0.00 0.00 0.00 70 1016.7
20260507181541 17 0.0 0.0 0.00 0.00 0.00 70 1016.6
20260507180049 17 0.0 0.0 0.00 0.00 0.00 71 1016.6
20260507174541 17 0.0 0.0 0.00 0.00 0.00 70 1016.6
20260507171539 18 0.0 0.0 0.00 0.00 0.00 67 1016.2
20260507170048 18 0.0 0.0 0.00 0.00 0.00 66 1016.0
20260507164538 18 0.0 0.0 0.00 0.00 0.00 66 1016.3
20260507161549 19 0.0 0.0 0.00 0.00 0.00 64 1016.4
20260507160041 19 0.0 0.0 0.00 0.00 0.00 61 1016.3
20260507154542 20 0.0 0.0 0.00 0.00 0.00 58 1016.4
20260507151539 20 0.0 0.0 0.00 0.00 0.00 54 1016.5
20260507150038 21 0.0 0.0 0.00 0.00 0.00 53 1016.4
20260507144539 21 0.0 0.0 0.00 0.00 0.00 51 1016.3
20260507141538 21 0.0 0.0 0.00 0.00 0.00 55 1016.1
20260507140038 20 0.0 0.0 0.00 0.00 0.00 56 1016.1
20260507134537 20 0.0 0.0 0.00 0.00 0.00 55 1016.0
20260507131543 22 0.0 0.0 0.00 0.00 0.00 52 1016.0
20260507130037 22 0.0 0.0 0.00 0.00 0.00 51 1016.2
20260507124533 22 0.0 0.0 0.00 0.00 0.00 49 1016.5
20260507121533 21 0.0 0.0 0.00 0.00 0.00 48 1016.7
20260507120030 22 0.0 0.0 0.00 0.00 0.00 47 1016.7
20260507114530 21 0.0 0.0 0.00 0.00 0.00 52 1016.7
20260507111530 21 0.0 0.0 0.00 0.00 0.00 54 1016.8
20260507110028 21 0.0 0.0 0.00 0.00 0.00 55 1016.6
20260507104525 21 0.0 0.0 0.00 0.00 0.00 59 1016.6
20260507101523 21 0.0 0.0 0.00 0.00 0.00 60 1016.7
20260507100020 20 0.0 0.0 0.00 0.00 0.00 62 1016.7
20260507094519 20 0.0 0.0 0.00 0.00 0.00 62 1016.7
20260507091524 20 0.0 0.0 0.00 0.00 0.00 65 1016.7
20260507090017 20 0.0 0.0 0.00 0.00 0.00 66 1016.5
20260507084535 20 0.0 0.0 0.00 0.00 0.00 68 1016.8
20260507081514 20 0.0 0.0 0.00 0.00 0.00 65 1016.8
20260507080011 19 0.0 0.0 0.00 0.00 0.00 65 1016.6
20260507074508 19 0.0 0.0 0.00 0.00 0.00 67 1016.4
20260507071509 19 0.0 0.0 0.00 0.00 0.00 63 1016.2
20260507070009 18 0.0 0.0 0.00 0.00 0.00 67 1016.2
20260507064501 18 0.0 0.0 0.00 0.00 0.00 78 1016.1
20260507061556 17 0.0 0.0 0.00 0.00 0.00 82 1016.0
20260507060100 17 0.0 0.0 0.00 0.00 0.00 83 1016.0
20260507054609 17 0.0 0.0 0.00 0.00 0.00 84 1015.8
20260507051551 17 0.0 0.0 0.00 0.00 0.00 83 1015.6
20260507050048 16 0.0 0.0 0.00 0.00 0.00 84 1015.6
20260507044540 16 0.0 0.0 0.00 0.00 0.00 85 1015.6
20260507041534 16 0.0 0.0 0.00 0.00 0.00 85 1015.4
20260507040039 16 0.0 0.0 0.00 0.00 0.00 85 1015.3
20260507034530 16 0.0 0.0 0.00 0.00 0.00 85 1015.3
20260507031528 16 0.0 0.0 0.00 0.00 0.00 83 1015.1
20260507030025 16 0.0 0.0 0.00 0.00 0.00 83 1015.0
20260507024530 16 0.0 0.0 0.00 0.00 0.00 82 1014.8
20260507021530 16 0.0 0.0 0.00 0.00 0.00 81 1014.6
20260507020022 16 0.0 0.0 0.00 0.00 0.00 80 1014.4
20260507014523 16 0.0 0.0 0.00 0.00 0.00 79 1014.5
20260507011523 16 0.0 0.0 0.00 0.00 0.00 78 1014.3
20260507010030 16 0.0 0.0 0.00 0.00 0.00 79 1014.1
20260507004521 16 0.0 0.0 0.00 0.00 0.00 79 1014.2
20260507001517 16 0.0 0.0 0.00 0.00 0.00 80 1014.3
20260507000019 16 0.0 0.0 0.00 0.00 0.00 79 1014.4
20260506234512 16 0.0 0.0 0.00 0.00 0.00 77 1014.6
20260506231518 17 0.0 0.0 0.00 0.00 0.00 74 1014.9
20260506230011 16 0.0 0.0 0.00 0.00 0.00 76 1015.0
20260506224512 16 0.0 0.0 0.00 0.00 0.00 77 1015.1
20260506221508 17 0.0 0.0 0.00 0.00 0.00 75 1015.1
20260506220004 17 0.0 0.0 0.00 0.00 0.00 72 1015.1
20260506214503 17 0.0 0.0 0.00 0.00 0.00 68 1015.2
20260506211528 17 0.0 0.0 0.00 0.00 0.00 66 1015.3
20260506210029 17 0.0 0.0 0.00 0.00 0.00 65 1015.5
20260506204521 17 0.0 0.0 0.00 0.00 0.00 63 1015.5
20260506201509 18 0.0 0.0 0.00 0.00 0.00 60 1015.4
20260506200010 18 0.0 0.0 0.00 0.00 0.00 60 1015.3
20260506194504 18 0.0 0.0 0.00 0.00 0.00 59 1015.1